DLH9PZ EDDF-LBSF

Flight info

Callsign DLH9PZ
Flight time 1h 48m
Altitude 35000
Route CINDY8S CINDY Z74 LAMPU DCT NOMBO Y161 MAH DCT LATLO DCT OBEDI DCT PODET DCT SOMUN DCT NISVA
Aircraft A321/M-SDE3FGHIRWY/LB1

Departure

Time 2026-04-17 05:16
Airport Frankfurt Main Airport (EDDF)

Arrival

Time 2026-04-17 07:05
Airport Sofia Airport (LBSF)
Time Latitude Longitude Altitude Speed Heading
2026-04-17 04:39 50.04687 8.56701 364 ft 0 kts 115°
2026-04-17 05:05 50.04687 8.56699 329 ft 1 kts 115°
2026-04-17 05:05 50.04698 8.56664 359 ft 4 kts 115°
2026-04-17 05:05 50.04709 8.56632 357 ft 4 kts 149°
2026-04-17 05:06 50.04729 8.56632 360 ft 4 kts 208°
2026-04-17 05:06 50.04748 8.56647 363 ft 4 kts 205°
2026-04-17 05:06 50.04772 8.56666 363 ft 4 kts 207°
2026-04-17 05:06 50.04783 8.56675 362 ft 0 kts 205°
2026-04-17 05:09 50.04775 8.56669 356 ft 6 kts 206°
2026-04-17 05:09 50.04733 8.56610 360 ft 9 kts 232°
2026-04-17 05:09 50.04693 8.56525 358 ft 10 kts 238°
2026-04-17 05:09 50.04663 8.56418 358 ft 11 kts 249°
2026-04-17 05:10 50.04634 8.56303 356 ft 12 kts 248°
2026-04-17 05:10 50.04605 8.56176 358 ft 14 kts 251°
2026-04-17 05:10 50.04571 8.56030 363 ft 15 kts 250°
2026-04-17 05:10 50.04492 8.55940 361 ft 15 kts 198°
2026-04-17 05:11 50.04392 8.55907 361 ft 15 kts 176°
2026-04-17 05:11 50.04287 8.55956 358 ft 16 kts 172°
2026-04-17 05:11 50.04214 8.55834 354 ft 17 kts 249°
2026-04-17 05:11 50.04169 8.55654 352 ft 18 kts 249°
2026-04-17 05:12 50.04126 8.55462 353 ft 19 kts 251°
2026-04-17 05:12 50.04080 8.55272 361 ft 19 kts 250°
2026-04-17 05:12 50.04035 8.55084 359 ft 19 kts 249°
2026-04-17 05:12 50.03987 8.54884 354 ft 20 kts 250°
2026-04-17 05:13 50.03935 8.54669 356 ft 22 kts 249°
2026-04-17 05:13 50.03881 8.54440 350 ft 23 kts 249°
2026-04-17 05:13 50.03799 8.54218 356 ft 24 kts 246°
2026-04-17 05:13 50.03740 8.53973 347 ft 24 kts 250°
2026-04-17 05:14 50.03681 8.53721 348 ft 25 kts 249°
2026-04-17 05:14 50.03615 8.53465 338 ft 26 kts 249°
2026-04-17 05:14 50.03553 8.53202 339 ft 26 kts 249°
2026-04-17 05:14 50.03491 8.52947 333 ft 23 kts 249°
2026-04-17 05:15 50.03435 8.52741 333 ft 18 kts 249°
2026-04-17 05:15 50.03361 8.52604 332 ft 17 kts 197°
2026-04-17 05:15 50.03197 8.52597 335 ft 42 kts 179°
2026-04-17 05:15 50.02670 8.52602 333 ft 109 kts 180°
2026-04-17 05:16 50.01691 8.52611 332 ft 166 kts 180°
2026-04-17 05:16 50.00416 8.52620 622 ft 188 kts 180°
2026-04-17 05:16 49.99117 8.52619 1368 ft 186 kts 179°
2026-04-17 05:16 49.97789 8.52668 1908 ft 199 kts 171°
2026-04-17 05:17 49.96479 8.53587 2191 ft 219 kts 139°
2026-04-17 05:17 49.95587 8.55540 2629 ft 225 kts 119°
2026-04-17 05:17 49.94836 8.57652 3201 ft 227 kts 120°
2026-04-17 05:17 49.94160 8.59907 3756 ft 230 kts 105°
2026-04-17 05:18 49.93956 8.62406 4058 ft 245 kts 97°
2026-04-17 05:18 49.93412 8.64995 4328 ft 261 kts 119°
2026-04-17 05:18 49.92539 8.67501 4937 ft 266 kts 119°
2026-04-17 05:18 49.91646 8.70086 5586 ft 270 kts 119°
2026-04-17 05:19 49.90754 8.72674 6233 ft 274 kts 119°
2026-04-17 05:19 49.89852 8.75291 6864 ft 277 kts 119°
2026-04-17 05:19 49.88935 8.77946 7478 ft 281 kts 119°
2026-04-17 05:19 49.88005 8.80625 8095 ft 284 kts 119°
2026-04-17 05:20 49.87063 8.83338 8711 ft 288 kts 119°
2026-04-17 05:20 49.86109 8.86082 9326 ft 291 kts 118°
2026-04-17 05:20 49.85141 8.88862 9955 ft 295 kts 118°
2026-04-17 05:20 49.84175 8.91640 10452 ft 301 kts 118°
2026-04-17 05:21 49.83145 8.94597 10581 ft 322 kts 118°
2026-04-17 05:21 49.82035 8.97777 10704 ft 341 kts 118°
2026-04-17 05:21 49.80897 9.01041 10829 ft 358 kts 118°
2026-04-17 05:21 49.79686 9.04509 10951 ft 374 kts 118°
2026-04-17 05:22 49.78421 9.08118 11106 ft 388 kts 118°
2026-04-17 05:22 49.77124 9.11805 11516 ft 393 kts 118°
2026-04-17 05:22 49.75812 9.15535 11970 ft 396 kts 118°
2026-04-17 05:22 49.74365 9.19184 12406 ft 400 kts 127°
2026-04-17 05:23 49.72545 9.22540 12857 ft 404 kts 131°
2026-04-17 05:23 49.70708 9.25780 13320 ft 408 kts 131°
2026-04-17 05:23 49.68830 9.29095 13772 ft 412 kts 131°
2026-04-17 05:23 49.66934 9.32438 14191 ft 416 kts 131°
2026-04-17 05:24 49.64994 9.35855 14581 ft 419 kts 131°
2026-04-17 05:24 49.63050 9.39228 14980 ft 422 kts 134°
2026-04-17 05:24 49.60842 9.42222 15381 ft 424 kts 144°
2026-04-17 05:24 49.58347 9.44664 15775 ft 426 kts 150°
2026-04-17 05:25 49.55784 9.46988 16199 ft 428 kts 150°
2026-04-17 05:25 49.53210 9.49325 16586 ft 431 kts 150°
2026-04-17 05:25 49.50621 9.51685 16978 ft 434 kts 150°
2026-04-17 05:25 49.48021 9.54062 17363 ft 436 kts 150°
2026-04-17 05:26 49.45403 9.56455 17748 ft 439 kts 150°
2026-04-17 05:26 49.42770 9.58856 18135 ft 442 kts 150°
2026-04-17 05:26 49.40120 9.61264 18504 ft 444 kts 150°
2026-04-17 05:26 49.37452 9.63686 18838 ft 447 kts 150°
2026-04-17 05:27 49.34805 9.66206 19155 ft 450 kts 145°
2026-04-17 05:27 49.32386 9.69270 19469 ft 453 kts 136°
2026-04-17 05:27 49.30155 9.72687 19802 ft 455 kts 135°
2026-04-17 05:27 49.27914 9.76126 20130 ft 457 kts 135°
2026-04-17 05:28 49.25658 9.79574 20454 ft 460 kts 135°
2026-04-17 05:28 49.23385 9.83033 20771 ft 462 kts 135°
2026-04-17 05:28 49.21094 9.86510 21081 ft 465 kts 135°
2026-04-17 05:28 49.18791 9.90003 21377 ft 468 kts 135°
2026-04-17 05:29 49.16475 9.93513 21684 ft 470 kts 135°
2026-04-17 05:29 49.14146 9.97041 21986 ft 472 kts 135°
2026-04-17 05:29 49.11806 10.00584 22282 ft 475 kts 135°
2026-04-17 05:29 49.09455 10.04137 22582 ft 477 kts 135°
2026-04-17 05:30 49.07089 10.07705 22871 ft 479 kts 135°
2026-04-17 05:30 49.04701 10.11270 23170 ft 482 kts 136°
2026-04-17 05:30 49.02262 10.14792 23464 ft 484 kts 137°
2026-04-17 05:30 48.99781 10.18279 23768 ft 486 kts 137°
2026-04-17 05:31 48.97275 10.21753 24005 ft 489 kts 137°
2026-04-17 05:31 48.94754 10.25243 24256 ft 491 kts 137°
2026-04-17 05:31 48.92234 10.28755 24499 ft 492 kts 137°
2026-04-17 05:31 48.89714 10.32295 24728 ft 494 kts 137°
2026-04-17 05:32 48.87190 10.35853 24946 ft 496 kts 137°
2026-04-17 05:32 48.84661 10.39425 25166 ft 497 kts 137°
2026-04-17 05:32 48.82138 10.43024 25362 ft 499 kts 135°
2026-04-17 05:32 48.79678 10.46741 25560 ft 500 kts 134°
2026-04-17 05:33 48.77280 10.50565 25758 ft 501 kts 132°
2026-04-17 05:33 48.74917 10.54452 25984 ft 501 kts 131°
2026-04-17 05:33 48.72566 10.58350 26221 ft 501 kts 132°
2026-04-17 05:33 48.70205 10.62231 26475 ft 501 kts 132°
2026-04-17 05:34 48.67825 10.66087 26733 ft 501 kts 133°
2026-04-17 05:34 48.65430 10.69915 26985 ft 501 kts 133°
2026-04-17 05:34 48.63020 10.73721 27236 ft 501 kts 133°
2026-04-17 05:34 48.60608 10.77512 27488 ft 500 kts 133°
2026-04-17 05:35 48.58196 10.81303 27736 ft 500 kts 133°
2026-04-17 05:35 48.55794 10.85103 27979 ft 500 kts 133°
2026-04-17 05:35 48.53405 10.88911 28267 ft 499 kts 133°
2026-04-17 05:35 48.51053 10.92676 28477 ft 500 kts 133°
2026-04-17 05:36 48.48638 10.96551 28717 ft 501 kts 133°
2026-04-17 05:36 48.46239 11.00362 28971 ft 501 kts 133°
2026-04-17 05:36 48.43827 11.04144 29228 ft 500 kts 133°
2026-04-17 05:36 48.41405 11.07908 29483 ft 500 kts 134°
2026-04-17 05:37 48.38979 11.11663 29734 ft 500 kts 134°
2026-04-17 05:37 48.36552 11.15409 29979 ft 500 kts 134°
2026-04-17 05:37 48.34122 11.19156 30234 ft 500 kts 134°
2026-04-17 05:37 48.31695 11.22901 30471 ft 500 kts 134°
2026-04-17 05:38 48.29270 11.26647 30674 ft 500 kts 133°
2026-04-17 05:38 48.26945 11.30516 30884 ft 499 kts 127°
2026-04-17 05:38 48.24981 11.34794 31095 ft 497 kts 118°
2026-04-17 05:38 48.23284 11.39299 31295 ft 496 kts 117°
2026-04-17 05:39 48.21589 11.43803 31522 ft 496 kts 117°
2026-04-17 05:39 48.19890 11.48292 31732 ft 495 kts 118°
2026-04-17 05:39 48.18184 11.52775 31963 ft 494 kts 118°
2026-04-17 05:39 48.16480 11.57245 32183 ft 494 kts 118°
2026-04-17 05:40 48.14776 11.61708 32414 ft 493 kts 118°
2026-04-17 05:40 48.13073 11.66165 32645 ft 493 kts 118°
2026-04-17 05:40 48.11372 11.70607 32859 ft 492 kts 118°
2026-04-17 05:40 48.09670 11.75053 33067 ft 492 kts 118°
2026-04-17 05:41 48.07971 11.79489 33274 ft 491 kts 118°
2026-04-17 05:41 48.06273 11.83920 33476 ft 491 kts 118°
2026-04-17 05:41 48.04571 11.88347 33679 ft 490 kts 118°
2026-04-17 05:41 48.02871 11.92754 33866 ft 490 kts 118°
2026-04-17 05:42 48.01166 11.97163 34080 ft 490 kts 118°
2026-04-17 05:42 47.99461 12.01565 34262 ft 489 kts 118°
2026-04-17 05:42 47.97757 12.05961 34429 ft 489 kts 118°
2026-04-17 05:42 47.96629 12.08869 34536 ft 489 kts 118°
2026-04-17 05:43 47.94374 12.14680 34740 ft 489 kts 118°
2026-04-17 05:43 47.93224 12.17637 34848 ft 488 kts 118°
2026-04-17 05:43 47.91517 12.22014 35005 ft 488 kts 118°
2026-04-17 05:43 47.89810 12.26380 35181 ft 487 kts 118°
2026-04-17 05:44 47.86387 12.35135 35264 ft 490 kts 118°
2026-04-17 05:44 47.82950 12.43901 35269 ft 491 kts 118°
2026-04-17 05:45 47.79499 12.52661 35270 ft 491 kts 119°
2026-04-17 05:45 47.76041 12.61407 35271 ft 490 kts 119°
2026-04-17 05:46 47.72576 12.70135 35272 ft 491 kts 119°
2026-04-17 05:46 47.69053 12.78815 35279 ft 492 kts 124°
2026-04-17 05:47 47.64527 12.86411 35282 ft 493 kts 135°
2026-04-17 05:47 47.59668 12.93577 35281 ft 493 kts 135°
2026-04-17 05:48 47.54804 13.00752 35288 ft 494 kts 135°
2026-04-17 05:48 47.49932 13.07916 35294 ft 494 kts 135°
2026-04-17 05:49 47.45048 13.15074 35285 ft 494 kts 135°
2026-04-17 05:49 47.40163 13.22218 35285 ft 495 kts 135°
2026-04-17 05:50 47.35269 13.29364 35299 ft 495 kts 135°
2026-04-17 05:50 47.30807 13.37049 35293 ft 493 kts 124°
2026-04-17 05:51 47.26829 13.45284 35305 ft 494 kts 124°
2026-04-17 05:51 47.22835 13.53521 35300 ft 494 kts 124°
2026-04-17 05:52 47.18825 13.61739 35278 ft 494 kts 124°
2026-04-17 05:52 47.14814 13.69949 35295 ft 495 kts 124°
2026-04-17 05:53 47.10796 13.78150 35303 ft 495 kts 124°
2026-04-17 05:53 47.06770 13.86339 35298 ft 495 kts 124°
2026-04-17 05:54 47.02739 13.94522 35298 ft 495 kts 124°
2026-04-17 05:54 46.98697 14.02683 35293 ft 495 kts 124°
2026-04-17 05:55 46.94647 14.10837 35302 ft 495 kts 124°
2026-04-17 05:55 46.90602 14.18973 35284 ft 494 kts 124°
2026-04-17 05:56 46.86553 14.27092 35295 ft 494 kts 125°
2026-04-17 05:56 46.82504 14.35192 35296 ft 493 kts 125°
2026-04-17 05:57 46.78447 14.43264 35300 ft 493 kts 124°
2026-04-17 05:57 46.74389 14.51329 35293 ft 493 kts 124°
2026-04-17 05:58 46.70324 14.59388 35288 ft 493 kts 125°
2026-04-17 05:59 46.64212 14.71466 35279 ft 494 kts 125°
2026-04-17 05:59 46.60133 14.79498 35268 ft 494 kts 125°
2026-04-17 06:00 46.56043 14.87519 35251 ft 494 kts 125°
2026-04-17 06:00 46.51943 14.95532 35253 ft 494 kts 125°
2026-04-17 06:01 46.47833 15.03524 35256 ft 494 kts 125°
2026-04-17 06:01 46.43723 15.11510 35257 ft 494 kts 125°
2026-04-17 06:02 46.39611 15.19493 35259 ft 494 kts 125°
2026-04-17 06:02 46.35492 15.27465 35231 ft 494 kts 125°
2026-04-17 06:03 46.31367 15.35409 35247 ft 494 kts 125°
2026-04-17 06:03 46.27235 15.43335 35264 ft 493 kts 125°
2026-04-17 06:04 46.23105 15.51253 35258 ft 493 kts 125°
2026-04-17 06:04 46.18979 15.59162 35254 ft 493 kts 125°
2026-04-17 06:05 46.15148 15.67327 35256 ft 491 kts 119°
2026-04-17 06:05 46.11550 15.75773 35257 ft 491 kts 119°
2026-04-17 06:06 46.07994 15.84095 35254 ft 491 kts 119°
2026-04-17 06:06 46.04398 15.92462 35245 ft 490 kts 119°
2026-04-17 06:07 46.00807 16.00800 35251 ft 490 kts 119°
2026-04-17 06:07 45.97216 16.09124 35248 ft 490 kts 119°
2026-04-17 06:08 45.93616 16.17438 35242 ft 489 kts 119°
2026-04-17 06:08 45.90011 16.25726 35246 ft 489 kts 119°
2026-04-17 06:09 45.86401 16.34008 35246 ft 489 kts 119°
2026-04-17 06:09 45.82789 16.42277 35246 ft 489 kts 119°
2026-04-17 06:10 45.79162 16.50538 35244 ft 489 kts 119°
2026-04-17 06:10 45.75533 16.58786 35236 ft 489 kts 120°
2026-04-17 06:11 45.71902 16.67025 35234 ft 489 kts 119°
2026-04-17 06:11 45.68278 16.75245 35242 ft 488 kts 120°
2026-04-17 06:12 45.64645 16.83444 35238 ft 488 kts 120°
2026-04-17 06:12 45.60999 16.91623 35239 ft 488 kts 120°
2026-04-17 06:13 45.57353 16.99783 35234 ft 488 kts 120°
2026-04-17 06:13 45.53705 17.07942 35241 ft 487 kts 120°
2026-04-17 06:14 45.50058 17.16073 35239 ft 487 kts 120°
2026-04-17 06:14 45.46407 17.24199 35230 ft 486 kts 120°
2026-04-17 06:15 45.42750 17.32303 35235 ft 486 kts 120°
2026-04-17 06:15 45.39084 17.40394 35230 ft 486 kts 121°
2026-04-17 06:16 45.35417 17.48458 35223 ft 485 kts 121°
2026-04-17 06:16 45.31751 17.56517 35223 ft 485 kts 121°
2026-04-17 06:17 45.28084 17.64564 35229 ft 485 kts 121°
2026-04-17 06:17 45.24410 17.72594 35224 ft 485 kts 121°
2026-04-17 06:18 45.20725 17.80604 35221 ft 485 kts 121°
2026-04-17 06:18 45.17037 17.88602 35212 ft 485 kts 121°
2026-04-17 06:19 45.13353 17.96598 35213 ft 485 kts 122°
2026-04-17 06:19 45.09663 18.04578 35217 ft 484 kts 122°
2026-04-17 06:20 45.05966 18.12543 35215 ft 484 kts 122°
2026-04-17 06:20 45.02268 18.20493 35214 ft 484 kts 122°
2026-04-17 06:21 44.98566 18.28428 35213 ft 483 kts 122°
2026-04-17 06:21 44.94855 18.36341 35215 ft 483 kts 122°
2026-04-17 06:22 44.91147 18.44243 35217 ft 483 kts 122°
2026-04-17 06:22 44.87458 18.52080 35214 ft 482 kts 123°
2026-04-17 06:23 44.83742 18.59952 35218 ft 482 kts 123°
2026-04-17 06:23 44.80024 18.67804 35215 ft 481 kts 123°
2026-04-17 06:24 44.76909 18.74361 35213 ft 481 kts 123°
2026-04-17 06:24 44.73200 18.82177 35213 ft 480 kts 123°
2026-04-17 06:25 44.69482 18.89975 35212 ft 480 kts 123°
2026-04-17 06:25 44.65757 18.97749 35208 ft 480 kts 123°
2026-04-17 06:26 44.62029 19.05510 35207 ft 479 kts 123°
2026-04-17 06:26 44.58327 19.13294 35206 ft 479 kts 122°
2026-04-17 06:27 44.54954 19.21351 35204 ft 479 kts 119°
2026-04-17 06:27 44.51736 19.29525 35202 ft 479 kts 119°
2026-04-17 06:28 44.48453 19.37647 35195 ft 479 kts 120°
2026-04-17 06:28 44.45085 19.45687 35198 ft 479 kts 121°
2026-04-17 06:29 44.41699 19.53707 35203 ft 478 kts 121°
2026-04-17 06:29 44.38327 19.61726 35200 ft 478 kts 121°
2026-04-17 06:30 44.34967 19.69746 35194 ft 478 kts 121°
2026-04-17 06:30 44.31596 19.77759 35194 ft 478 kts 121°
2026-04-17 06:31 44.28220 19.85750 35196 ft 478 kts 121°
2026-04-17 06:31 44.24839 19.93724 35196 ft 477 kts 121°
2026-04-17 06:32 44.21456 20.01686 35195 ft 477 kts 122°
2026-04-17 06:32 44.18072 20.09633 35191 ft 477 kts 122°
2026-04-17 06:33 44.14705 20.17506 35188 ft 476 kts 122°
2026-04-17 06:33 44.11318 20.25399 35194 ft 474 kts 122°
2026-04-17 06:34 44.07936 20.33269 35191 ft 474 kts 122°
2026-04-17 06:34 44.04557 20.41128 35190 ft 473 kts 121°
2026-04-17 06:35 44.01179 20.48958 35194 ft 472 kts 122°
2026-04-17 06:35 43.97798 20.56765 35190 ft 471 kts 122°
2026-04-17 06:36 43.94417 20.64550 35179 ft 471 kts 122°
2026-04-17 06:36 43.91027 20.72331 35180 ft 470 kts 121°
2026-04-17 06:37 43.87646 20.80080 35177 ft 469 kts 122°
2026-04-17 06:37 43.84263 20.87807 35174 ft 469 kts 122°
2026-04-17 06:38 43.80870 20.95515 35169 ft 468 kts 122°
2026-04-17 06:38 43.77473 21.03205 35167 ft 468 kts 122°
2026-04-17 06:39 43.74088 21.10887 35163 ft 467 kts 122°
2026-04-17 06:39 43.70710 21.18561 35165 ft 467 kts 122°
2026-04-17 06:40 43.67335 21.26159 35164 ft 467 kts 122°
2026-04-17 06:40 43.63935 21.33801 35154 ft 467 kts 122°
2026-04-17 06:41 43.60509 21.41495 35152 ft 468 kts 122°
2026-04-17 06:41 43.57114 21.49084 35149 ft 468 kts 122°
2026-04-17 06:42 43.53694 21.56714 35153 ft 468 kts 123°
2026-04-17 06:42 43.50265 21.64346 35149 ft 469 kts 123°
2026-04-17 06:43 43.46820 21.71973 35141 ft 469 kts 123°
2026-04-17 06:43 43.43342 21.79652 35151 ft 470 kts 123°
2026-04-17 06:44 43.39910 21.87231 35156 ft 470 kts 123°
2026-04-17 06:44 43.36454 21.94857 35158 ft 470 kts 123°
2026-04-17 06:45 43.32984 22.02465 35156 ft 470 kts 123°
2026-04-17 06:45 43.29509 22.10067 35152 ft 470 kts 123°
2026-04-17 06:46 43.26037 22.17668 35150 ft 470 kts 123°
2026-04-17 06:46 43.22560 22.25249 35144 ft 470 kts 123°
2026-04-17 06:47 43.19071 22.32823 35145 ft 470 kts 123°
2026-04-17 06:47 43.15578 22.40382 35143 ft 469 kts 123°
2026-04-17 06:48 43.12086 22.47932 35130 ft 469 kts 123°
2026-04-17 06:48 43.08596 22.55466 34877 ft 467 kts 123°
2026-04-17 06:48 43.06857 22.59215 34645 ft 466 kts 124°
2026-04-17 06:49 43.05119 22.62951 34296 ft 465 kts 124°
2026-04-17 06:49 43.03376 22.66692 33371 ft 468 kts 124°
2026-04-17 06:49 43.01624 22.70445 32576 ft 469 kts 124°
2026-04-17 06:49 42.99866 22.74204 31687 ft 471 kts 124°
2026-04-17 06:50 42.98098 22.77979 30767 ft 473 kts 125°
2026-04-17 06:50 42.96133 22.81579 29803 ft 473 kts 132°
2026-04-17 06:50 42.93989 22.84988 28832 ft 474 kts 132°
2026-04-17 06:50 42.91839 22.88405 27826 ft 475 kts 132°
2026-04-17 06:51 42.89687 22.91831 26812 ft 476 kts 131°
2026-04-17 06:51 42.87525 22.95272 25719 ft 479 kts 131°
2026-04-17 06:51 42.85352 22.98726 24704 ft 480 kts 131°
2026-04-17 06:51 42.83175 23.02185 23713 ft 481 kts 131°
2026-04-17 06:52 42.81000 23.05634 22842 ft 477 kts 131°
2026-04-17 06:52 42.78852 23.09032 22064 ft 470 kts 130°
2026-04-17 06:52 42.76731 23.12380 21283 ft 465 kts 130°
2026-04-17 06:52 42.74633 23.15693 20504 ft 460 kts 130°
2026-04-17 06:53 42.72556 23.18974 19750 ft 457 kts 130°
2026-04-17 06:53 42.70493 23.22233 19012 ft 452 kts 130°
2026-04-17 06:53 42.68447 23.25455 18273 ft 448 kts 130°
2026-04-17 06:53 42.66421 23.28637 17446 ft 440 kts 130°
2026-04-17 06:54 42.64475 23.31726 16633 ft 419 kts 127°
2026-04-17 06:54 42.62937 23.34927 15860 ft 393 kts 116°
2026-04-17 06:54 42.61905 23.38236 15104 ft 370 kts 106°
2026-04-17 06:54 42.61333 23.41542 14429 ft 349 kts 96°
2026-04-17 06:55 42.61113 23.44723 13801 ft 330 kts 93°
2026-04-17 06:55 42.60934 23.47753 13132 ft 314 kts 94°
2026-04-17 06:55 42.60753 23.50651 12497 ft 302 kts 94°
2026-04-17 06:55 42.60578 23.53442 11820 ft 293 kts 94°
2026-04-17 06:56 42.60408 23.56166 11148 ft 286 kts 94°
2026-04-17 06:56 42.60238 23.58873 10490 ft 292 kts 94°
2026-04-17 06:56 42.60063 23.61636 9919 ft 292 kts 94°
2026-04-17 06:56 42.59893 23.64313 9382 ft 278 kts 94°
2026-04-17 06:57 42.59731 23.66868 8860 ft 266 kts 94°
2026-04-17 06:57 42.59577 23.69313 8349 ft 255 kts 94°
2026-04-17 06:57 42.59431 23.71677 7842 ft 247 kts 94°
2026-04-17 06:57 42.59292 23.73958 7364 ft 238 kts 93°
2026-04-17 06:58 42.59162 23.76160 6886 ft 231 kts 91°
2026-04-17 06:58 42.59419 23.78299 6423 ft 231 kts 66°
2026-04-17 06:58 42.60357 23.80023 6123 ft 228 kts 40°
2026-04-17 06:58 42.61773 23.80975 5871 ft 231 kts 14°
2026-04-17 06:59 42.63380 23.80924 5612 ft 236 kts 346°
2026-04-17 06:59 42.64801 23.79823 5367 ft 239 kts 317°
2026-04-17 06:59 42.65661 23.77943 5164 ft 234 kts 290°
2026-04-17 06:59 42.66092 23.75867 4986 ft 222 kts 288°
2026-04-17 07:00 42.66490 23.73907 4780 ft 209 kts 289°
2026-04-17 07:00 42.66872 23.72053 4595 ft 201 kts 289°
2026-04-17 07:00 42.67249 23.70239 4381 ft 199 kts 289°
2026-04-17 07:00 42.67623 23.68442 4187 ft 196 kts 288°
2026-04-17 07:01 42.67972 23.66654 4032 ft 195 kts 284°
2026-04-17 07:01 42.68191 23.64827 3975 ft 196 kts 279°
2026-04-17 07:01 42.68333 23.62985 3983 ft 195 kts 277°
2026-04-17 07:01 42.68453 23.61155 3983 ft 194 kts 276°
2026-04-17 07:02 42.68568 23.59330 3927 ft 194 kts 276°
2026-04-17 07:02 42.68681 23.57507 3726 ft 192 kts 276°
2026-04-17 07:02 42.68792 23.55703 3459 ft 191 kts 276°
2026-04-17 07:02 42.68903 23.53911 3201 ft 190 kts 275°
2026-04-17 07:03 42.69008 23.52190 2953 ft 173 kts 276°
2026-04-17 07:03 42.69103 23.50631 2746 ft 160 kts 276°
2026-04-17 07:03 42.69194 23.49151 2546 ft 155 kts 276°
2026-04-17 07:03 42.69283 23.47691 2352 ft 154 kts 277°
2026-04-17 07:04 42.69373 23.46233 2148 ft 154 kts 277°
2026-04-17 07:04 42.69465 23.44782 1950 ft 154 kts 277°
2026-04-17 07:04 42.69550 23.43348 1747 ft 142 kts 275°
2026-04-17 07:04 42.69620 23.42232 1747 ft 94 kts 274°
2026-04-17 07:05 42.69659 23.41581 1755 ft 44 kts 275°
2026-04-17 07:05 42.69677 23.41258 1754 ft 31 kts 273°
2026-04-17 07:05 42.69678 23.41006 1753 ft 21 kts 264°
2026-04-17 07:05 42.69652 23.40844 1745 ft 13 kts 250°
2026-04-17 07:06 42.69611 23.40726 1747 ft 14 kts 238°
2026-04-17 07:06 42.69529 23.40728 1750 ft 14 kts 126°
2026-04-17 07:06 42.69512 23.40864 1753 ft 15 kts 94°
2026-04-17 07:06 42.69507 23.40972 1748 ft 18 kts 94°
2026-04-17 07:07 42.69495 23.41144 1753 ft 18 kts 99°
2026-04-17 07:07 42.69397 23.41200 1742 ft 18 kts 189°
2026-04-17 07:07 42.69275 23.41166 1753 ft 16 kts 192°
2026-04-17 07:07 42.69168 23.41177 1747 ft 16 kts 162°
2026-04-17 07:08 42.69099 23.41218 1747 ft 7 kts 123°
2026-04-17 07:08 42.69104 23.41268 1751 ft 4 kts 75°
2026-04-17 07:08 42.69108 23.41286 1750 ft 0 kts 73°